User: anonymous   Login
Location: Unspecified
(0.0000°N, 0.0000°E)
Time: 22:16:42
(UTC+00:00)
Language:

CONNECTA IOT-12 - Orbit

View from above orbital plane
View from above orbital plane
View from above satellite
View from above satellite

Ground track
Ground track

The orbit is defined by the following mean orbital elements,

1 64553U          26145.31067373 +.00000000 +00000-0 +14920-3 0 00003
2 64553  97.4717 261.0075 0002633 106.7061 253.4464 15.20767839    02
Epoch (UTC): 25 May 2026 07:27:22
Eccentricity: 0.0002633
inclination: 97.4717°
perigee height: 502 km
apogee height: 505 km
right ascension of ascending node: 261.0075°
argument of perigee: 106.7061°
revolutions per day: 15.20767839
mean anomaly at epoch: 253.4464°

The dashed part of the orbit path shows where the satellite is in the earth's shadow,  

DLR